| time (UTC) | temp F | wind direction | speed knots | gust knots | rain 1hr in | rain 24hr in | rain mn in | humidity % | barometer mb |
| 20260506124246 | 53 | 120 | 0.9 | 2.6 | 0.00 | 0.00 | 0.00 | 89 | 1013.1 |
| 20260506123743 | 53 | 306 | 1.7 | 2.6 | 0.00 | 0.00 | 0.00 | 88 | 1013.1 |
| 20260506123242 | 53 | 15 | 1.7 | 4.3 | 0.00 | 0.00 | 0.00 | 87 | 1013.0 |
| 20260506122738 | 53 | 58 | 4.3 | 8.7 | 0.00 | 0.00 | 0.00 | 86 | 1013.2 |
| 20260506122235 | 53 | 21 | 3.5 | 5.2 | 0.00 | 0.00 | 0.00 | 85 | 1013.1 |
| 20260506121733 | 53 | 345 | 0.9 | 7.0 | 0.00 | 0.00 | 0.00 | 84 | 1012.9 |
| 20260506121230 | 53 | 315 | 3.5 | 10.4 | 0.00 | 0.00 | 0.00 | 83 | 1012.8 |
| 20260506120727 | 54 | 321 | 1.7 | 10.4 | 0.00 | 0.00 | 0.00 | 82 | 1012.7 |
| 20260506120225 | 54 | 289 | 7.0 | 7.0 | 0.00 | 0.00 | 0.00 | 82 | 1012.6 |
| 20260506115723 | 54 | 262 | 1.7 | 7.8 | 0.00 | 0.00 | 0.00 | 81 | 1012.4 |
| 20260506115221 | 54 | 317 | 1.7 | 6.1 | 0.00 | 0.00 | 0.00 | 81 | 1012.6 |
| 20260506114718 | 54 | 343 | 1.7 | 7.8 | 0.00 | 0.00 | 0.00 | 81 | 1012.5 |
| 20260506114215 | 54 | 54 | 3.5 | 6.1 | 0.00 | 0.00 | 0.00 | 80 | 1012.2 |
| 20260506113714 | 54 | 287 | 2.6 | 10.4 | 0.00 | 0.00 | 0.00 | 80 | 1012.0 |
| 20260506113211 | 54 | 55 | 3.5 | 7.8 | 0.00 | 0.00 | 0.00 | 80 | 1012.2 |
| 20260506112707 | 54 | 8 | 3.5 | 3.5 | 0.00 | 0.00 | 0.00 | 80 | 1012.1 |
| 20260506112205 | 54 | 73 | 1.7 | 7.8 | 0.00 | 0.00 | 0.00 | 79 | 1012.0 |
| 20260506111702 | 55 | 337 | 1.7 | 3.5 | 0.00 | 0.00 | 0.00 | 79 | 1011.8 |
| 20260506111200 | 55 | 266 | 4.3 | 7.8 | 0.00 | 0.00 | 0.00 | 79 | 1011.9 |
| 20260506110657 | 55 | 351 | 1.7 | 4.3 | 0.00 | 0.00 | 0.00 | 79 | 1011.6 |
| 20260506110155 | 55 | 325 | 1.7 | 4.3 | 0.00 | 0.00 | 0.00 | 79 | 1011.4 |
| 20260506105651 | 55 | 313 | 3.5 | 5.2 | 0.00 | 0.00 | 0.00 | 79 | 1011.3 |
| 20260506105148 | 55 | 343 | 3.5 | 4.3 | 0.00 | 0.00 | 0.00 | 78 | 1011.3 |
| 20260506104646 | 55 | 328 | 2.6 | 4.3 | 0.00 | 0.00 | 0.00 | 78 | 1011.3 |
| 20260506104143 | 55 | 307 | 3.5 | 5.2 | 0.00 | 0.00 | 0.00 | 78 | 1011.4 |
| 20260506103640 | 55 | 321 | 1.7 | 4.3 | 0.00 | 0.00 | 0.00 | 79 | 1011.1 |
| 20260506103137 | 55 | 28 | 1.7 | 5.2 | 0.00 | 0.00 | 0.00 | 79 | 1011.0 |
| 20260506102635 | 55 | 12 | 1.7 | 5.2 | 0.00 | 0.00 | 0.00 | 78 | 1011.1 |
| 20260506102132 | 55 | 280 | 4.3 | 4.3 | 0.00 | 0.00 | 0.00 | 78 | 1010.8 |
| 20260506101629 | 56 | 327 | 2.6 | 5.2 | 0.00 | 0.00 | 0.00 | 78 | 1010.8 |
| 20260506101126 | 56 | 72 | 1.7 | 5.2 | 0.00 | 0.00 | 0.00 | 77 | 1011.0 |
| 20260506100625 | 56 | 283 | 5.2 | 6.1 | 0.00 | 0.00 | 0.00 | 77 | 1010.9 |
| 20260506100122 | 56 | 323 | 2.6 | 6.1 | 0.00 | 0.00 | 0.00 | 77 | 1011.0 |
| 20260506095621 | 56 | 301 | 1.7 | 8.7 | 0.00 | 0.00 | 0.00 | 76 | 1010.8 |
| 20260506095117 | 56 | 45 | 2.6 | 4.3 | 0.00 | 0.00 | 0.00 | 76 | 1010.8 |
| 20260506094614 | 56 | 314 | 3.5 | 7.0 | 0.00 | 0.00 | 0.00 | 76 | 1010.8 |
| 20260506094112 | 56 | 67 | 3.5 | 7.0 | 0.00 | 0.00 | 0.00 | 76 | 1010.6 |
| 20260506093610 | 57 | 9 | 2.6 | 5.2 | 0.00 | 0.00 | 0.00 | 76 | 1010.7 |
| 20260506093107 | 57 | 83 | 2.6 | 4.3 | 0.00 | 0.00 | 0.00 | 76 | 1010.6 |
| 20260506092605 | 57 | 267 | 1.7 | 4.3 | 0.00 | 0.00 | 0.00 | 77 | 1010.5 |
| 20260506092102 | 57 | 6 | 0.0 | 3.5 | 0.00 | 0.00 | 0.00 | 77 | 1010.5 |
| 20260506091600 | 57 | 10 | 1.7 | 6.1 | 0.00 | 0.00 | 0.00 | 77 | 1010.3 |
| 20260506091057 | 57 | 77 | 1.7 | 3.5 | 0.00 | 0.00 | 0.00 | 77 | 1010.2 |
| 20260506090555 | 57 | 336 | 1.7 | 4.3 | 0.00 | 0.00 | 0.00 | 77 | 1010.1 |
| 20260506090051 | 57 | 76 | 0.9 | 3.5 | 0.00 | 0.00 | 0.00 | 77 | 1010.2 |
| 20260506085548 | 57 | 70 | 2.6 | 5.2 | 0.00 | 0.00 | 0.00 | 77 | 1010.0 |
| 20260506085044 | 57 | 76 | 3.5 | 5.2 | 0.00 | 0.00 | 0.00 | 77 | 1010.2 |
| 20260506084541 | 57 | 47 | 1.7 | 2.6 | 0.00 | 0.00 | 0.00 | 77 | 1010.1 |
| 20260506084037 | 57 | 16 | 1.7 | 3.5 | 0.00 | 0.00 | 0.00 | 77 | 1010.2 |
| 20260506083535 | 57 | 13 | 0.9 | 3.5 | 0.00 | 0.00 | 0.00 | 77 | 1010.2 |
| 20260506083032 | 57 | 348 | 1.7 | 3.5 | 0.00 | 0.00 | 0.00 | 77 | 1010.1 |
| 20260506082529 | 57 | 58 | 0.9 | 2.6 | 0.00 | 0.00 | 0.00 | 77 | 1010.0 |
| 20260506082024 | 57 | 282 | 1.7 | 3.5 | 0.00 | 0.00 | 0.00 | 77 | 1010.0 |
| 20260506081523 | 57 | 320 | 0.9 | 3.5 | 0.00 | 0.00 | 0.00 | 77 | 1010.0 |
| 20260506081020 | 57 | 291 | 2.6 | 5.2 | 0.00 | 0.00 | 0.00 | 77 | 1010.1 |
| 20260506080517 | 57 | 61 | 1.7 | 4.3 | 0.00 | 0.00 | 0.00 | 77 | 1010.3 |
| 20260506073501 | 57 | 56 | 0.0 | 1.7 | 0.00 | 0.00 | 0.00 | 78 | 1010.1 |
| 20260506072958 | 57 | 323 | 2.6 | 3.5 | 0.00 | 0.00 | 0.00 | 78 | 1010.4 |
| 20260506072455 | 58 | 332 | 2.6 | 5.2 | 0.00 | 0.00 | 0.00 | 77 | 1010.0 |
| 20260506071953 | 58 | 32 | 1.7 | 5.2 | 0.00 | 0.00 | 0.00 | 77 | 1010.3 |
| 20260506071451 | 58 | 78 | 1.7 | 3.5 | 0.00 | 0.00 | 0.00 | 77 | 1010.2 |
| 20260506070947 | 58 | 51 | 2.6 | 4.3 | 0.00 | 0.00 | 0.00 | 77 | 1010.1 |
| 20260506070444 | 58 | 42 | 2.6 | 7.0 | 0.00 | 0.00 | 0.00 | 77 | 1010.2 |
| 20260506062422 | 59 | 353 | 2.6 | 5.2 | 0.00 | 0.00 | 0.00 | 78 | 1010.0 |
| 20260506061918 | 59 | 349 | 0.9 | 4.3 | 0.00 | 0.00 | 0.00 | 78 | 1010.1 |
| 20260506061414 | 59 | 331 | 2.6 | 5.2 | 0.00 | 0.00 | 0.00 | 78 | 1009.8 |
| 20260506060912 | 59 | 303 | 2.6 | 7.0 | 0.00 | 0.00 | 0.00 | 77 | 1010.1 |
| 20260506060410 | 59 | 43 | 1.7 | 5.2 | 0.00 | 0.00 | 0.00 | 77 | 1009.7 |
| 20260506051342 | 60 | 309 | 1.7 | 5.2 | 0.00 | 0.00 | 0.00 | 79 | 1009.5 |
| 20260506050839 | 60 | 14 | 1.7 | 4.3 | 0.00 | 0.00 | 0.00 | 78 | 1009.5 |
| 20260506050337 | 60 | 313 | 5.2 | 11.3 | 0.00 | 0.00 | 0.00 | 78 | 1009.8 |
| 20260506044827 | 61 | 322 | 2.6 | 4.3 | 0.00 | 0.00 | 0.00 | 78 | 1009.6 |
| 20260506044325 | 61 | 42 | 4.3 | 8.7 | 0.00 | 0.00 | 0.00 | 78 | 1009.2 |
| 20260506043822 | 62 | 335 | 1.7 | 3.5 | 0.00 | 0.00 | 0.00 | 78 | 1009.1 |
| 20260506043319 | 62 | 45 | 0.9 | 7.0 | 0.00 | 0.00 | 0.00 | 78 | 1009.2 |
| 20260506042818 | 62 | 348 | 4.3 | 7.8 | 0.00 | 0.00 | 0.00 | 78 | 1009.3 |
| 20260506042317 | 62 | 289 | 2.6 | 9.6 | 0.00 | 0.00 | 0.00 | 78 | 1009.3 |
| 20260506041815 | 62 | 307 | 4.3 | 7.0 | 0.00 | 0.00 | 0.00 | 77 | 1009.2 |
| 20260506041311 | 63 | 307 | 3.5 | 9.6 | 0.00 | 0.00 | 0.00 | 77 | 1009.1 |
| 20260506040809 | 63 | 309 | 7.8 | 10.4 | 0.00 | 0.00 | 0.00 | 76 | 1008.8 |
| 20260506040306 | 64 | 303 | 2.6 | 9.6 | 0.00 | 0.00 | 0.00 | 76 | 1009.0 |
| 20260506035802 | 64 | 290 | 5.2 | 8.7 | 0.00 | 0.00 | 0.00 | 76 | 1009.2 |
| 20260506035259 | 65 | 333 | 3.5 | 5.2 | 0.00 | 0.00 | 0.00 | 76 | 1008.9 |
| 20260506034756 | 66 | 343 | 3.5 | 7.8 | 0.00 | 0.00 | 0.00 | 76 | 1008.8 |
| 20260506034253 | 66 | 256 | 4.3 | 5.2 | 0.00 | 0.00 | 0.00 | 76 | 1008.5 |
| 20260506033750 | 66 | 356 | 0.9 | 7.0 | 0.00 | 0.00 | 0.00 | 75 | 1008.7 |
| 20260506033247 | 67 | 318 | 2.6 | 5.2 | 0.00 | 0.00 | 0.00 | 75 | 1008.8 |
| 20260506032744 | 68 | 60 | 3.5 | 7.8 | 0.00 | 0.00 | 0.00 | 76 | 1008.4 |
| 20260506032241 | 68 | 325 | 2.6 | 11.3 | 0.00 | 0.00 | 0.00 | 75 | 1008.7 |
| 20260506031738 | 68 | 337 | 2.6 | 6.1 | 0.00 | 0.00 | 0.00 | 75 | 1008.2 |
| 20260506031235 | 69 | 358 | 6.1 | 15.6 | 0.00 | 0.00 | 0.00 | 74 | 1008.3 |
| 20260506030733 | 70 | 352 | 6.1 | 12.2 | 0.00 | 0.00 | 0.00 | 73 | 1008.2 |
| 20260506030231 | 71 | 306 | 5.2 | 6.1 | 0.00 | 0.00 | 0.00 | 74 | 1007.9 |
| 20260506025727 | 72 | 307 | 9.6 | 9.6 | 0.00 | 0.00 | 0.00 | 73 | 1007.7 |
| 20260506025224 | 73 | 333 | 3.5 | 7.0 | 0.00 | 0.00 | 0.00 | 74 | 1007.2 |
| 20260506024721 | 74 | 328 | 4.3 | 5.2 | 0.00 | 0.00 | 0.00 | 73 | 1007.4 |
| 20260506024217 | 74 | 306 | 2.6 | 5.2 | 0.00 | 0.00 | 0.00 | 72 | 1007.4 |
| 20260506023713 | 75 | 320 | 3.5 | 7.8 | 0.00 | 0.00 | 0.00 | 72 | 1006.8 |
| 20260506023211 | 75 | 291 | 5.2 | 5.2 | 0.00 | 0.00 | 0.00 | 71 | 1006.9 |
| 20260506022708 | 76 | 342 | 0.0 | 2.6 | 0.00 | 0.00 | 0.00 | 73 | 1006.8 |
| 20260506022205 | 76 | 263 | 2.6 | 4.3 | 0.00 | 0.00 | 0.00 | 75 | 1006.9 |
| 20260506021703 | 77 | 262 | 2.6 | 4.3 | 0.00 | 0.00 | 0.00 | 76 | 1007.0 |
| 20260506021200 | 77 | 254 | 3.5 | 3.5 | 0.00 | 0.00 | 0.00 | 77 | 1006.9 |
| 20260506020657 | 77 | 269 | 1.7 | 1.7 | 0.00 | 0.00 | 0.00 | 77 | 1006.5 |
| 20260506020155 | 77 | 313 | 0.0 | 1.7 | 0.00 | 0.00 | 0.00 | 78 | 1006.3 |
| 20260506015652 | 77 | 222 | 1.7 | 3.5 | 0.00 | 0.00 | 0.00 | 78 | 1006.7 |
| 20260506015149 | 77 | 271 | 4.3 | 5.2 | 0.00 | 0.00 | 0.00 | 79 | 1006.8 |
| 20260506014647 | 77 | 268 | 1.7 | 3.5 | 0.00 | 0.00 | 0.00 | 78 | 1006.7 |
| 20260506014142 | 77 | 260 | 2.6 | 4.3 | 0.00 | 0.00 | 0.00 | 78 | 1006.5 |
| 20260506013640 | 78 | 273 | 1.7 | 2.6 | 0.00 | 0.00 | 0.00 | 77 | 1006.2 |
| 20260506013137 | 78 | 297 | 0.0 | 1.7 | 0.00 | 0.00 | 0.00 | 77 | 1006.1 |
| 20260506012633 | 78 | 184 | 2.6 | 2.6 | 0.00 | 0.00 | 0.00 | 76 | 1005.8 |
| 20260506012130 | 78 | 168 | 2.6 | 4.3 | 0.00 | 0.00 | 0.00 | 76 | 1006.0 |
| 20260506011628 | 78 | 164 | 3.5 | 3.5 | 0.00 | 0.00 | 0.00 | 75 | 1006.0 |
| 20260506011123 | 78 | 169 | 2.6 | 4.3 | 0.00 | 0.00 | 0.00 | 75 | 1006.0 |
| 20260506010623 | 78 | 179 | 0.0 | 3.5 | 0.00 | 0.00 | 0.00 | 75 | 1006.2 |
| 20260506010119 | 78 | 175 | 4.3 | 7.8 | 0.00 | 0.00 | 0.00 | 75 | 1006.3 |
| 20260506005616 | 78 | 162 | 2.6 | 8.7 | 0.00 | 0.00 | 0.00 | 75 | 1006.1 |
| 20260506005112 | 78 | 164 | 1.7 | 7.8 | 0.00 | 0.00 | 0.00 | 75 | 1005.9 |
| 20260506004609 | 78 | 166 | 2.6 | 9.6 | 0.00 | 0.00 | 0.00 | 75 | 1005.7 |
| 20260506004106 | 79 | 162 | 2.6 | 5.2 | 0.00 | 0.00 | 0.00 | 75 | 1005.6 |
| 20260506003602 | 79 | 139 | 2.6 | 6.1 | 0.00 | 0.00 | 0.00 | 75 | 1005.5 |
| 20260506003059 | 79 | 169 | 5.2 | 7.0 | 0.00 | 0.00 | 0.00 | 75 | 1005.7 |
| 20260506002554 | 79 | 165 | 4.3 | 7.8 | 0.00 | 0.00 | 0.00 | 74 | 1005.7 |
| 20260506002051 | 79 | 175 | 4.3 | 5.2 | 0.00 | 0.00 | 0.00 | 74 | 1005.6 |
| 20260506001547 | 79 | 176 | 2.6 | 7.0 | 0.00 | 0.00 | 0.00 | 74 | 1005.7 |
| 20260506001044 | 80 | 145 | 3.5 | 5.2 | 0.00 | 0.00 | 0.00 | 74 | 1005.5 |
| 20260506000542 | 80 | 158 | 2.6 | 6.1 | 0.00 | 0.00 | 0.00 | 73 | 1005.4 |
| 20260506000039 | 80 | 151 | 2.6 | 7.0 | 0.00 | 0.00 | 0.00 | 73 | 1005.3 |
| 20260505235537 | 80 | 217 | 2.6 | 5.2 | 0.00 | 0.00 | 0.00 | 73 | 1005.2 |
| 20260505235034 | 80 | 190 | 4.3 | 7.0 | 0.00 | 0.00 | 0.00 | 72 | 1005.5 |
| 20260505234531 | 80 | 159 | 2.6 | 6.1 | 0.00 | 0.00 | 0.00 | 73 | 1005.3 |
| 20260505234027 | 80 | 175 | 2.6 | 4.3 | 0.00 | 0.00 | 0.00 | 73 | 1005.5 |
| 20260505233525 | 80 | 167 | 5.2 | 8.7 | 0.00 | 0.00 | 0.00 | 72 | 1005.5 |
| 20260505233022 | 80 | 183 | 2.6 | 8.7 | 0.00 | 0.00 | 0.00 | 71 | 1005.3 |
| 20260505232520 | 81 | 193 | 3.5 | 7.8 | 0.00 | 0.00 | 0.00 | 71 | 1005.3 |
| 20260505232017 | 82 | 160 | 5.2 | 7.0 | 0.00 | 0.00 | 0.00 | 70 | 1005.3 |
| 20260505231514 | 81 | 181 | 4.3 | 8.7 | 0.00 | 0.00 | 0.00 | 71 | 1005.3 |
| 20260505231013 | 81 | 162 | 3.5 | 7.8 | 0.00 | 0.00 | 0.00 | 71 | 1005.2 |
| 20260505230510 | 81 | 143 | 6.1 | 10.4 | 0.00 | 0.00 | 0.00 | 70 | 1005.3 |
| 20260505230007 | 82 | 161 | 4.3 | 8.7 | 0.00 | 0.00 | 0.00 | 69 | 1005.3 |
| 20260505225503 | 83 | 165 | 6.1 | 9.6 | 0.00 | 0.00 | 0.00 | 68 | 1005.1 |
| 20260505224959 | 83 | 150 | 7.0 | 14.8 | 0.00 | 0.00 | 0.00 | 68 | 1005.0 |
| 20260505224456 | 83 | 170 | 4.3 | 7.8 | 0.00 | 0.00 | 0.00 | 67 | 1004.8 |
| 20260505223953 | 83 | 171 | 7.8 | 9.6 | 0.00 | 0.00 | 0.00 | 67 | 1005.2 |
| 20260505223450 | 84 | 173 | 5.2 | 7.0 | 0.00 | 0.00 | 0.00 | 68 | 1005.1 |
| 20260505222946 | 84 | 190 | 1.7 | 7.0 | 0.00 | 0.00 | 0.00 | 68 | 1005.2 |
| 20260505222443 | 83 | 169 | 5.2 | 9.6 | 0.00 | 0.00 | 0.00 | 68 | 1005.1 |
| 20260505221938 | 83 | 170 | 4.3 | 9.6 | 0.00 | 0.00 | 0.00 | 68 | 1005.1 |
| 20260505221436 | 84 | 204 | 0.9 | 7.0 | 0.00 | 0.00 | 0.00 | 68 | 1005.2 |
| 20260505220933 | 82 | 150 | 3.5 | 7.0 | 0.00 | 0.00 | 0.00 | 70 | 1005.1 |
| 20260505220430 | 83 | 185 | 3.5 | 6.1 | 0.00 | 0.00 | 0.00 | 69 | 1005.2 |
| 20260505215928 | 83 | 165 | 6.1 | 8.7 | 0.00 | 0.00 | 0.00 | 67 | 1005.3 |
| 20260505215426 | 84 | 171 | 6.1 | 7.8 | 0.00 | 0.00 | 0.00 | 66 | 1005.5 |
| 20260505214923 | 84 | 155 | 4.3 | 8.7 | 0.00 | 0.00 | 0.00 | 67 | 1005.1 |
| 20260505214421 | 84 | 165 | 2.6 | 12.2 | 0.00 | 0.00 | 0.00 | 68 | 1005.2 |
| 20260505213918 | 83 | 162 | 7.8 | 10.4 | 0.00 | 0.00 | 0.00 | 67 | 1005.2 |
| 20260505213416 | 82 | 147 | 3.5 | 7.0 | 0.00 | 0.00 | 0.00 | 68 | 1005.1 |
| 20260505212912 | 82 | 147 | 5.2 | 7.0 | 0.00 | 0.00 | 0.00 | 69 | 1005.4 |
| 20260505212409 | 82 | 161 | 4.3 | 7.8 | 0.00 | 0.00 | 0.00 | 68 | 1005.5 |
| 20260505211905 | 82 | 221 | 3.5 | 7.8 | 0.00 | 0.00 | 0.00 | 68 | 1005.5 |
| 20260505211403 | 82 | 162 | 5.2 | 5.2 | 0.00 | 0.00 | 0.00 | 68 | 1005.5 |
| 20260505210859 | 82 | 179 | 3.5 | 7.8 | 0.00 | 0.00 | 0.00 | 68 | 1005.6 |
| 20260505210356 | 82 | 161 | 2.6 | 8.7 | 0.00 | 0.00 | 0.00 | 67 | 1005.7 |
| 20260505205852 | 85 | 151 | 9.6 | 10.4 | 0.00 | 0.00 | 0.00 | 65 | 1005.6 |
| 20260505205351 | 84 | 12 | 2.6 | 5.2 | 0.00 | 0.00 | 0.00 | 66 | 1005.5 |
| 20260505204847 | 85 | 104 | 1.7 | 8.7 | 0.00 | 0.00 | 0.00 | 65 | 1005.5 |
| 20260505204345 | 85 | 149 | 5.2 | 7.0 | 0.00 | 0.00 | 0.00 | 67 | 1005.5 |
| 20260505203842 | 84 | 198 | 1.7 | 8.7 | 0.00 | 0.00 | 0.00 | 65 | 1005.5 |
| 20260505203338 | 84 | 156 | 3.5 | 5.2 | 0.00 | 0.00 | 0.00 | 66 | 1005.5 |
| 20260505202835 | 83 | 214 | 5.2 | 8.7 | 0.00 | 0.00 | 0.00 | 67 | 1005.6 |
| 20260505202331 | 81 | 162 | 5.2 | 12.2 | 0.00 | 0.00 | 0.00 | 69 | 1005.7 |
| 20260505201828 | 81 | 149 | 7.8 | 14.8 | 0.00 | 0.00 | 0.00 | 69 | 1005.8 |
| 20260505201326 | 82 | 175 | 4.3 | 12.2 | 0.00 | 0.00 | 0.00 | 68 | 1005.8 |
| 20260505200824 | 82 | 139 | 7.8 | 10.4 | 0.00 | 0.00 | 0.00 | 70 | 1005.8 |
| 20260505200320 | 82 | 196 | 3.5 | 8.7 | 0.00 | 0.00 | 0.00 | 70 | 1005.8 |
| 20260505195815 | 82 | 185 | 4.3 | 8.7 | 0.00 | 0.00 | 0.00 | 69 | 1006.0 |
| 20260505195314 | 82 | 199 | 3.5 | 11.3 | 0.00 | 0.00 | 0.00 | 70 | 1005.7 |
| 20260505194810 | 82 | 147 | 10.4 | 12.2 | 0.00 | 0.00 | 0.00 | 68 | 1005.7 |
| 20260505194308 | 81 | 183 | 3.5 | 8.7 | 0.00 | 0.00 | 0.00 | 69 | 1005.8 |
| 20260505193803 | 82 | 206 | 2.6 | 6.1 | 0.00 | 0.00 | 0.00 | 70 | 1006.0 |
| 20260505193301 | 81 | 144 | 4.3 | 4.3 | 0.00 | 0.00 | 0.00 | 70 | 1005.8 |
| 20260505192759 | 80 | 163 | 4.3 | 12.2 | 0.00 | 0.00 | 0.00 | 70 | 1005.9 |
| 20260505192256 | 81 | 149 | 2.6 | 10.4 | 0.00 | 0.00 | 0.00 | 70 | 1006.0 |
| 20260505191754 | 80 | 158 | 6.1 | 8.7 | 0.00 | 0.00 | 0.00 | 70 | 1005.9 |
| 20260505191252 | 80 | 191 | 2.6 | 12.2 | 0.00 | 0.00 | 0.00 | 70 | 1006.2 |
| 20260505190748 | 79 | 188 | 4.3 | 10.4 | 0.00 | 0.00 | 0.00 | 71 | 1006.0 |
| 20260505190243 | 80 | 153 | 5.2 | 10.4 | 0.00 | 0.00 | 0.00 | 70 | 1006.1 |
| 20260505185740 | 80 | 115 | 2.6 | 12.2 | 0.00 | 0.00 | 0.00 | 71 | 1005.9 |
| 20260505185237 | 80 | 155 | 5.2 | 9.6 | 0.00 | 0.00 | 0.00 | 71 | 1005.8 |
| 20260505184732 | 80 | 170 | 5.2 | 12.2 | 0.00 | 0.00 | 0.00 | 71 | 1005.8 |
| 20260505184230 | 80 | 174 | 4.3 | 13.9 | 0.00 | 0.00 | 0.00 | 70 | 1005.9 |
| 20260505183727 | 80 | 163 | 3.5 | 14.8 | 0.00 | 0.00 | 0.00 | 71 | 1005.9 |
| 20260505183224 | 80 | 173 | 3.5 | 10.4 | 0.00 | 0.00 | 0.00 | 71 | 1005.8 |
| 20260505182720 | 80 | 157 | 5.2 | 6.1 | 0.00 | 0.00 | 0.00 | 70 | 1005.8 |
| 20260505182218 | 80 | 248 | 3.5 | 7.8 | 0.00 | 0.00 | 0.00 | 69 | 1005.8 |
| 20260505181714 | 81 | 162 | 10.4 | 13.0 | 0.00 | 0.00 | 0.00 | 68 | 1006.0 |
| 20260505181212 | 81 | 267 | 2.6 | 6.1 | 0.00 | 0.00 | 0.00 | 69 | 1005.8 |
| 20260505180708 | 81 | 172 | 6.1 | 11.3 | 0.00 | 0.00 | 0.00 | 69 | 1005.8 |
| 20260505180205 | 80 | 171 | 4.3 | 15.6 | 0.00 | 0.00 | 0.00 | 70 | 1005.8 |
| 20260505175700 | 79 | 182 | 6.1 | 13.9 | 0.00 | 0.00 | 0.00 | 71 | 1005.7 |
| 20260505175157 | 79 | 157 | 7.0 | 19.1 | 0.00 | 0.00 | 0.00 | 70 | 1005.8 |
| 20260505174654 | 79 | 164 | 6.1 | 12.2 | 0.00 | 0.00 | 0.00 | 70 | 1006.1 |
| 20260505174150 | 80 | 168 | 6.1 | 10.4 | 0.00 | 0.00 | 0.00 | 70 | 1005.9 |
| 20260505173647 | 79 | 172 | 8.7 | 12.2 | 0.00 | 0.00 | 0.00 | 70 | 1006.2 |
| 20260505173144 | 79 | 155 | 8.7 | 12.2 | 0.00 | 0.00 | 0.00 | 70 | 1006.2 |
| 20260505172641 | 78 | 167 | 7.8 | 15.6 | 0.00 | 0.00 | 0.00 | 72 | 1006.2 |
| 20260505172138 | 79 | 167 | 5.2 | 16.5 | 0.00 | 0.00 | 0.00 | 70 | 1006.1 |
| 20260505171637 | 78 | 156 | 6.1 | 11.3 | 0.00 | 0.00 | 0.00 | 73 | 1006.4 |
| 20260505171135 | 78 | 173 | 6.1 | 11.3 | 0.00 | 0.00 | 0.00 | 71 | 1006.7 |
| 20260505170632 | 78 | 147 | 5.2 | 12.2 | 0.00 | 0.00 | 0.00 | 73 | 1006.8 |
| 20260505170128 | 77 | 166 | 8.7 | 13.0 | 0.00 | 0.00 | 0.00 | 72 | 1006.8 |
| 20260505165623 | 77 | 185 | 7.0 | 8.7 | 0.00 | 0.00 | 0.00 | 73 | 1006.7 |
| 20260505165120 | 77 | 168 | 7.8 | 12.2 | 0.00 | 0.00 | 0.00 | 73 | 1006.4 |
| 20260505164615 | 77 | 179 | 7.0 | 13.9 | 0.00 | 0.00 | 0.00 | 73 | 1006.3 |
| 20260505164113 | 77 | 174 | 7.0 | 13.9 | 0.00 | 0.00 | 0.00 | 73 | 1006.4 |
| 20260505163612 | 77 | 158 | 6.1 | 14.8 | 0.00 | 0.00 | 0.00 | 75 | 1006.0 |
| 20260505163109 | 77 | 161 | 7.8 | 15.6 | 0.00 | 0.00 | 0.00 | 73 | 1006.1 |
| 20260505162606 | 77 | 166 | 2.6 | 10.4 | 0.00 | 0.00 | 0.00 | 74 | 1006.0 |
| 20260505162104 | 76 | 220 | 1.7 | 7.8 | 0.00 | 0.00 | 0.00 | 76 | 1005.9 |
| 20260505161600 | 76 | 180 | 6.1 | 14.8 | 0.00 | 0.00 | 0.00 | 75 | 1006.0 |
| 20260505161058 | 76 | 185 | 7.0 | 12.2 | 0.00 | 0.00 | 0.00 | 76 | 1005.9 |
| 20260505160555 | 76 | 165 | 7.8 | 13.0 | 0.00 | 0.00 | 0.00 | 78 | 1005.8 |
| 20260505153032 | 75 | 179 | 7.0 | 13.0 | 0.00 | 0.00 | 0.00 | 77 | 1006.3 |
| 20260505152529 | 74 | 171 | 6.1 | 10.4 | 0.00 | 0.00 | 0.00 | 78 | 1006.1 |
| 20260505152025 | 74 | 165 | 7.8 | 13.9 | 0.00 | 0.00 | 0.00 | 78 | 1006.0 |
| 20260505151520 | 73 | 226 | 4.3 | 11.3 | 0.00 | 0.00 | 0.00 | 79 | 1006.2 |
| 20260505151017 | 74 | 173 | 4.3 | 14.8 | 0.00 | 0.00 | 0.00 | 78 | 1006.0 |
| 20260505150514 | 74 | 177 | 6.1 | 7.8 | 0.00 | 0.00 | 0.00 | 80 | 1005.9 |
| 20260505140439 | 71 | 166 | 4.3 | 11.3 | 0.00 | 0.00 | 0.00 | 82 | 1006.2 |
| 20260505124852 | 70 | 176 | 1.7 | 10.4 | 0.00 | 0.00 | 0.00 | 84 | 1006.0 |
| 20260505124349 | 70 | 167 | 3.5 | 11.3 | 0.00 | 0.00 | 0.00 | 84 | 1005.9 |